When you browse on this site, cookies collect data to enhance your experience and personalize the content and advertising you see.
Visit our Privacy Policy to learn more. By continuing to use the site, you agree to this use of cookies and data.
  • In Austria
  • List of Countries
  • For 7 days
  • Water Temperature
  • Weather Map
  • News
  • Weather Widgets
  • user-avatar
    Login

    Hourly Weather Andora

    Today, 20 January, Monday

    Time Temperature Precipitation Wind Pressure Humidity
    00:00 -10°C° 0 mm 4 mps 626 mmHg 78%
    01:00 -11°C° 0 mm 4 mps 625 mmHg 77%
    02:00 -10°C° 0 mm 3 mps 625 mmHg 75%
    03:00 -10°C° 0 mm 3 mps 625 mmHg 74%
    04:00 -10°C° 0 mm 3 mps 625 mmHg 75%
    05:00 -10°C° 0 mm 3 mps 625 mmHg 76%
    06:00 -9°C° 0 mm 3 mps 625 mmHg 76%
    07:00 -8°C° 0 mm 3 mps 626 mmHg 76%
    08:00 -7°C° 0 mm 3 mps 627 mmHg 75%
    09:00 -6°C° 0 mm 3 mps 628 mmHg 74%
    10:00 -5°C° 0.1 mm 3 mps 628 mmHg 72%
    11:00 -4°C° 0.1 mm 3 mps 628 mmHg 70%
    12:00 -2°C° 0.1 mm 3 mps 629 mmHg 68%
    13:00 -2°C° 0 mm 3 mps 628 mmHg 69%
    14:00 -2°C° 0 mm 3 mps 628 mmHg 71%
    15:00 -4°C° 0 mm 3 mps 628 mmHg 72%
    16:00 -4°C° 0 mm 3 mps 628 mmHg 76%
    17:00 -5°C° 0 mm 3 mps 627 mmHg 80%
    18:00 -6°C° 0 mm 3 mps 627 mmHg 84%
    19:00 -6°C° 0 mm 3 mps 627 mmHg 83%
    20:00 -6°C° 0 mm 3 mps 627 mmHg 81%
    21:00 -7°C° 0 mm 3 mps 627 mmHg 80%
    22:00 -6°C° 0 mm 3 mps 627 mmHg 79%
    23:00 -6°C° 0 mm 3 mps 627 mmHg 78%

    Tomorrow, 21 January, Tuesday

    Time Temperature Precipitation Wind Pressure Humidity
    00:00 -6°C° 0 mm 3 mps 627 mmHg 77%
    01:00 -6°C° 0.3 mm 3 mps 627 mmHg 79%
    02:00 -5°C° 0.3 mm 3 mps 626 mmHg 81%
    03:00 -5°C° 0.3 mm 3 mps 626 mmHg 83%
    04:00 -5°C° 0.7 mm 3 mps 626 mmHg 85%
    05:00 -4°C° 0.7 mm 2 mps 626 mmHg 88%
    06:00 -4°C° 0.7 mm 2 mps 626 mmHg 90%
    07:00 -3°C° 0.7 mm 2 mps 626 mmHg 89%
    08:00 -2°C° 0.7 mm 2 mps 627 mmHg 88%
    09:00 -1°C° 0.7 mm 2 mps 627 mmHg 87%
    10:00 -1°C° 0.6 mm 3 mps 628 mmHg 86%
    11:00 0°C° 0.6 mm 3 mps 628 mmHg 84%
    12:00 +1°C° 0.6 mm 3 mps 628 mmHg 82%
    13:00 +1°C° 0.5 mm 3 mps 628 mmHg 84%
    14:00 +1°C° 0.5 mm 3 mps 627 mmHg 85%
    15:00 +1°C° 0.5 mm 2 mps 627 mmHg 87%
    16:00 +1°C° 0.8 mm 2 mps 626 mmHg 90%
    17:00 -1°C° 0.8 mm 2 mps 626 mmHg 93%
    18:00 -2°C° 0.8 mm 2 mps 625 mmHg 96%
    19:00 -2°C° 1.2 mm 2 mps 625 mmHg 95%
    20:00 -2°C° 1.2 mm 2 mps 625 mmHg 95%
    21:00 -2°C° 1.2 mm 2 mps 625 mmHg 95%
    22:00 -2°C° 3 mm 2 mps 625 mmHg 96%
    23:00 -2°C° 3 mm 2 mps 625 mmHg 96%

    Day after tomorrow, 22 January, Wednesday

    Time Temperature Precipitation Wind Pressure Humidity
    00:00 -2°C° 3 mm 2 mps 625 mmHg 97%
    01:00 -2°C° 4.4 mm 2 mps 625 mmHg 97%
    02:00 -2°C° 4.4 mm 2 mps 624 mmHg 98%
    03:00 -1°C° 4.4 mm 2 mps 624 mmHg 98%
    04:00 -1°C° 4.2 mm 2 mps 624 mmHg 98%
    05:00 +1°C° 4.2 mm 1 mps 624 mmHg 98%
    06:00 +1°C° 4.2 mm 1 mps 623 mmHg 99%
    07:00 +1°C° 2.9 mm 1 mps 624 mmHg 99%
    08:00 +1°C° 2.9 mm 1 mps 624 mmHg 99%
    09:00 +1°C° 2.9 mm 1 mps 624 mmHg 99%
    10:00 +1°C° 3.9 mm 1 mps 624 mmHg 99%
    11:00 -1°C° 3.9 mm 2 mps 623 mmHg 99%
    12:00 -1°C° 3.9 mm 2 mps 623 mmHg 99%
    13:00 -1°C° 3.5 mm 2 mps 622 mmHg 99%
    14:00 -1°C° 3.5 mm 2 mps 622 mmHg 99%
    15:00 -1°C° 3.5 mm 2 mps 621 mmHg 99%
    16:00 +1°C° 3.6 mm 2 mps 621 mmHg 99%
    17:00 +1°C° 3.6 mm 2 mps 621 mmHg 99%
    18:00 +1°C° 3.6 mm 2 mps 621 mmHg 99%
    19:00 +1°C° 5.6 mm 2 mps 622 mmHg 99%
    20:00 -1°C° 5.6 mm 2 mps 622 mmHg 99%
    21:00 -1°C° 5.6 mm 2 mps 622 mmHg 99%
    22:00 -1°C° 1.4 mm 2 mps 622 mmHg 98%
    23:00 -1°C° 1.4 mm 2 mps 622 mmHg 98%

    23 January, Thursday

    Time Temperature Precipitation Wind Pressure Humidity
    00:00 -1°C° 1.4 mm 2 mps 622 mmHg 97%
    01:00 -1°C° 0.1 mm 2 mps 622 mmHg 97%
    02:00 -2°C° 0.1 mm 2 mps 622 mmHg 97%
    03:00 -2°C° 0.1 mm 2 mps 623 mmHg 96%
    04:00 -2°C° 0 mm 2 mps 622 mmHg 96%
    05:00 -3°C° 0 mm 2 mps 622 mmHg 95%
    06:00 -4°C° 0 mm 2 mps 622 mmHg 94%
    07:00 -1°C° 0 mm 1 mps 623 mmHg 92%
    08:00 0°C° 0 mm 1 mps 623 mmHg 90%
    09:00 0°C° 0 mm 1 mps 624 mmHg 87%
    10:00 +1°C° 0 mm 1 mps 624 mmHg 90%
    11:00 +2°C° 0 mm 1 mps 624 mmHg 92%
    12:00 +3°C° 0 mm 1 mps 625 mmHg 94%
    13:00 +3°C° 0 mm 1 mps 624 mmHg 94%
    14:00 +2°C° 0 mm 1 mps 624 mmHg 94%
    15:00 +2°C° 0 mm 1 mps 624 mmHg 93%
    16:00 +1°C° 0 mm 1 mps 623 mmHg 90%
    17:00 -1°C° 0 mm 1 mps 623 mmHg 87%
    18:00 -5°C° 0 mm 2 mps 622 mmHg 84%
    19:00 -5°C° 0 mm 2 mps 622 mmHg 81%
    20:00 -5°C° 0 mm 2 mps 622 mmHg 78%
    21:00 -5°C° 0 mm 2 mps 622 mmHg 75%
    22:00 -5°C° 0 mm 2 mps 622 mmHg 74%
    23:00 -5°C° 0 mm 2 mps 622 mmHg 73%

    24 January, Friday

    Time Temperature Precipitation Wind Pressure Humidity
    00:00 -3°C° 0 mm 1 mps 622 mmHg 73%
    01:00 -3°C° 0 mm 1 mps 622 mmHg 72%
    02:00 -5°C° 0 mm 2 mps 622 mmHg 71%
    03:00 -5°C° 0 mm 2 mps 622 mmHg 71%
    04:00 -5°C° 0 mm 2 mps 622 mmHg 70%
    05:00 -5°C° 0 mm 2 mps 622 mmHg 69%
    06:00 -5°C° 0 mm 2 mps 622 mmHg 68%
    07:00 -4°C° 0 mm 2 mps 622 mmHg 70%
    08:00 -1°C° 0 mm 1 mps 623 mmHg 72%
    09:00 -1°C° 0 mm 1 mps 623 mmHg 75%
    10:00 +1°C° 0 mm 1 mps 624 mmHg 80%
    11:00 +2°C° 0 mm 1 mps 624 mmHg 86%
    12:00 +2°C° 0 mm 0 mps 624 mmHg 92%
    13:00 +2°C° 0 mm 0 mps 624 mmHg 93%
    14:00 +2°C° 0 mm 0 mps 624 mmHg 93%
    15:00 +2°C° 0 mm 0 mps 623 mmHg 94%
    16:00 +1°C° 0 mm 1 mps 623 mmHg 91%
    17:00 0°C° 0 mm 1 mps 622 mmHg 88%
    18:00 -2°C° 0 mm 1 mps 622 mmHg 85%
    19:00 -2°C° 0 mm 1 mps 622 mmHg 84%
    20:00 -3°C° 0 mm 1 mps 622 mmHg 83%
    21:00 -3°C° 0 mm 1 mps 622 mmHg 81%
    22:00 -3°C° 0 mm 1 mps 622 mmHg 83%
    23:00 -3°C° 0 mm 1 mps 622 mmHg 84%

    25 January, Saturday

    Time Temperature Precipitation Wind Pressure Humidity
    00:00 -3°C° 0 mm 1 mps 622 mmHg 86%
    01:00 -3°C° 0 mm 1 mps 622 mmHg 86%
    02:00 -3°C° 0 mm 1 mps 622 mmHg 86%
    03:00 -3°C° 0 mm 1 mps 622 mmHg 87%
    04:00 -3°C° 0 mm 1 mps 622 mmHg 87%
    05:00 -3°C° 0 mm 1 mps 622 mmHg 86%
    06:00 -3°C° 0 mm 1 mps 621 mmHg 86%
    07:00 -2°C° 0 mm 1 mps 622 mmHg 87%
    08:00 -1°C° 0 mm 1 mps 623 mmHg 88%
    09:00 0°C° 0 mm 1 mps 624 mmHg 89%
    10:00 +1°C° 0 mm 1 mps 624 mmHg 91%
    11:00 +2°C° 0 mm 1 mps 624 mmHg 93%
    12:00 +3°C° 0 mm 1 mps 624 mmHg 94%
    13:00 +3°C° 0 mm 1 mps 624 mmHg 94%
    14:00 +3°C° 0 mm 1 mps 623 mmHg 95%
    15:00 +1°C° 0 mm 0 mps 623 mmHg 95%
    16:00 +1°C° 0 mm 0 mps 623 mmHg 94%
    17:00 0°C° 0 mm 0 mps 623 mmHg 94%
    18:00 -1°C° 0 mm 0 mps 623 mmHg 93%
    19:00 -1°C° 0 mm 1 mps 623 mmHg 92%
    20:00 -1°C° 0 mm 1 mps 623 mmHg 90%
    21:00 -2°C° 0 mm 1 mps 623 mmHg 88%
    22:00 -2°C° 0 mm 1 mps 623 mmHg 88%
    23:00 -3°C° 0 mm 1 mps 623 mmHg 87%
    Show more